map of ESB home
Great Circle Mapper logo
ESB - Airport
Location
City:  Ankara, Turkey
Name:Esenboga International Airport
ICAO:LTAC
IATA:ESB

Details
Type:Airport (Aerodrome, Airfield)
Use:Public/Civil, International (customs port of entry)
Latitude:4007'41"N (40.128056)
Longitude:3259'42"E (32.995000)
Elevation:3125 ft (953 m)
Variation:5.58E (WMM2015 magnetic declination)
0.09 annual change
Runways:2
Longest:12303 × 197 ft (3750 × 60 m), paved

Time
Time Zone:UTC+2 (DST+3)
Local Time:

Weather
METAR:LTAC 310250Z 02008KT CAVOK 18/11 Q1015 NOSIG RMK RWY21L 36007KT RWY03L 01007KT RWY21R 02007KT
TAF:LTAC 301640Z 3018/3118 VRB02KT 9999 SCT040
BECMG 3018/3021 CAVOK
TEMPO 3018/3022 02012KT
BECMG 3106/3109 SCT040
BECMG 3110/3112 02012KT
BECMG 3115/3118 CAVOK

Related Locations
Nearby:
Farthest:RVV: 11310 mi / 18202 km
Raivavae, Tubuai Islands, Austral Islands, PF

Find:

   beyond  
but within

Other Information
Maps:
NOTAMs:
Links:
Sources:

  
flag of Turkey   

Sectional Chart

Flight Planning
at skyvector.com

Satellite Image

Google Maps Satellite view

 

Copyright © 2004-2016 Karl L. Swartz. All rights reserved.
The Great Circle Mapper name and logo are trademarks of the Great Circle Mapper.
All other trademarks mentioned herein belong to their respective owners.
Please see credits for attibutions and further copyright information.

  Follow gcmap on Facebook Follow gcmap on Twitter Follow gcmap on Google+ GCmap on LinkedIn

hCard Microformat

Geo Microformat